TimeEDT,TemperatureF,Dew PointF,Humidity,Sea Level PressureIn,VisibilityMPH,Wind Direction,Wind SpeedMPH,Gust SpeedMPH,PrecipitationIn,Events,Conditions,WindDirDegrees,DateUTC
12:51 AM,37.0,36.0,96,29.95,10.0,Calm,Calm,-,N/A,,Clear,0,2012-10-18 04:51:00
1:51 AM,36.0,35.1,97,29.95,9.0,Calm,Calm,-,N/A,,Overcast,0,2012-10-18 05:51:00
2:51 AM,36.0,35.1,97,29.94,10.0,Calm,Calm,-,N/A,,Partly Cloudy,0,2012-10-18 06:51:00
3:51 AM,35.1,34.0,96,29.93,9.0,Calm,Calm,-,N/A,,Partly Cloudy,0,2012-10-18 07:51:00
4:51 AM,32.0,30.9,96,29.94,9.0,Calm,Calm,-,N/A,,Partly Cloudy,0,2012-10-18 08:51:00
5:51 AM,30.9,30.9,100,29.96,9.0,Calm,Calm,-,N/A,,Clear,0,2012-10-18 09:51:00
6:51 AM,28.9,28.0,96,29.96,10.0,Calm,Calm,-,N/A,,Clear,0,2012-10-18 10:51:00
7:51 AM,32.0,30.9,96,29.97,10.0,Calm,Calm,-,N/A,,Clear,0,2012-10-18 11:51:00
8:51 AM,37.0,35.1,93,29.98,10.0,Calm,Calm,-,N/A,,Partly Cloudy,0,2012-10-18 12:51:00
9:51 AM,51.1,39.0,63,29.97,10.0,Calm,Calm,-,N/A,,Clear,0,2012-10-18 13:51:00
10:51 AM,57.0,37.0,47,29.95,10.0,South,5.8,-,N/A,,Clear,180,2012-10-18 14:51:00
11:51 AM,61.0,39.0,44,29.95,10.0,South,10.4,-,N/A,,Clear,180,2012-10-18 15:51:00
12:51 PM,62.1,41.0,46,29.94,10.0,SW,16.1,-,N/A,,Clear,220,2012-10-18 16:51:00
1:51 PM,64.0,39.0,40,29.91,10.0,SE,11.5,-,N/A,,Clear,130,2012-10-18 17:51:00
2:51 PM,64.0,35.1,34,29.90,10.0,South,12.7,-,N/A,,Clear,180,2012-10-18 18:51:00
3:51 PM,62.1,36.0,38,29.89,10.0,SSE,15.0,21.9,N/A,,Clear,150,2012-10-18 19:51:00
4:51 PM,60.1,37.0,42,29.90,10.0,Variable,3.5,-,N/A,,Clear,0,2012-10-18 20:51:00
5:51 PM,57.9,37.9,47,29.91,10.0,South,11.5,20.7,N/A,,Clear,170,2012-10-18 21:51:00
6:51 PM,55.9,37.0,49,29.94,10.0,South,10.4,-,N/A,,Clear,180,2012-10-18 22:51:00
7:51 PM,55.9,37.9,51,29.94,10.0,South,11.5,21.9,N/A,,Clear,170,2012-10-18 23:51:00
8:51 PM,55.9,39.0,53,29.95,10.0,South,15.0,-,N/A,,Clear,170,2012-10-19 00:51:00
9:51 PM,55.0,39.9,57,29.93,10.0,South,13.8,-,N/A,,Clear,170,2012-10-19 01:51:00
10:51 PM,55.0,39.9,57,29.93,10.0,SSE,13.8,-,N/A,,Partly Cloudy,160,2012-10-19 02:51:00
11:51 PM,53.1,41.0,64,29.91,10.0,SSE,5.8,17.3,N/A,,Clear,160,2012-10-19 03:51:00